Torna al catalogo

CZ-6A DEB

AttivoPO
NORAD 55895·DEBRIS·🇨🇳 China

Lanciato Nov 11, 2022 da Taiyuan Satellite Launch Center

Loading…

Prossimi Passaggi (prossime 24 ore)

TLE

AggiornatoSource: Space-Track

Epoca: Sep 14, 2026, 10:25 UTC

1 55895U 22151AAT 26257.43428745  .00010276  00000-0  13348-2 0  9999
2 55895  98.5831 319.6729 0086152  25.9583 334.5909 14.78325274197855

Traccia CZ-6A DEB in tempo reale con AllMySat

Download on the App Store